This is the latest recevied weather packets stored in our database for station/object EB2EMZ-W. If no packets are shown the sender has not sent any weather packets the latest 10 day(s).
| Time | Temp. | Humidity | Pressure | Rain* | Wind** | Luminosity | Snow |
|---|---|---|---|---|---|---|---|
| 1788439517 | 31.11° C | 20% | 1007 hPa | 0 mm | - | - | - |
| 1788437696 | 30.56° C | 24% | 1007 hPa | 0 mm | - | - | - |
| 1788435875 | 29.44° C | 29% | 1007 hPa | 0 mm | - | - | - |
| 1788434055 | 28.33° C | 32% | 1008 hPa | 0 mm | - | - | - |
| 1788432234 | 27.22° C | 35% | 1008 hPa | 0 mm | - | - | - |
| 1788430413 | 25.56° C | 45% | 1009 hPa | 0 mm | - | - | - |
| 1788428594 | 23.33° C | 50% | 1009 hPa | 0 mm | - | - | - |
| 1788426773 | 21.67° C | 58% | 1009 hPa | 0 mm | - | - | - |
| 1788424953 | 20° C | 66% | 1009 hPa | 0 mm | - | - | - |
| 1788423133 | 20° C | 68% | 1010 hPa | 0 mm | - | - | - |
| 1788421313 | 19.44° C | 73% | 1009 hPa | 0 mm | - | - | - |
| 1788419492 | 18.89° C | 76% | 1010 hPa | 0 mm | - | - | - |
| 1788417673 | 18.33° C | 76% | 1010 hPa | 0 mm | - | - | - |
| 1788415853 | 17.78° C | 80% | 1009 hPa | 0 mm | - | - | - |
| 1788414032 | 17.78° C | 79% | 1009 hPa | 0 mm | - | - | - |
| 1788412212 | 17.78° C | 79% | 1009 hPa | 0 mm | - | - | - |
| 1788410391 | 17.22° C | 80% | 1009 hPa | 0 mm | - | - | - |
| 1788408571 | 17.22° C | 77% | 1009 hPa | 0 mm | - | - | - |
| 1788406751 | 16.67° C | 78% | 1009 hPa | 0 mm | - | - | - |
| 1788404930 | 16.11° C | 77% | 1010 hPa | 0 mm | - | - | - |
| 1788403110 | 16.67° C | 80% | 1010 hPa | 0 mm | - | - | - |
| 1788401290 | 16.67° C | 78% | 1010 hPa | 0 mm | - | - | - |
| 1788399469 | 16.67° C | 81% | 1010 hPa | 0 mm | - | - | - |
| 1788397649 | 16.67° C | 79% | 1010 hPa | 0 mm | - | - | - |
| 1788395828 | 16.67° C | 79% | 1010 hPa | 0 mm | - | - | - |
* Rain latest hour (hover to see other rain measurements)
** Current wind speed in m/s (hover to see current wind gust speed)